AirNav   Air Wisconsin Up To $57,000 Bonus
 
 1884 users online  

NJ69 Ideal Air Strip
Hammonton, New Jersey, USA

GOING TO HAMMONTON?


FAA INFORMATION EFFECTIVE 02 JANUARY 2020

Location

FAA Identifier: NJ69
Lat/Long: 39-39-30.4200N 074-48-08.5850W
39-39.507000N 074-48.143083W
39.6584500,-74.8023847
(estimated)
Elevation: 80 ft. / 24 m (estimated)
Variation: 12W (1985)
From city: 2 miles N of HAMMONTON, NJ
Time zone: UTC -5 (UTC -4 during Daylight Saving Time)
Zip code: 08037

Airport Operations

Airport use: Private use. Permission required prior to landing
Activation date: 11/1971
Control tower: no
ARTCC: WASHINGTON CENTER
FSS: MILLVILLE FLIGHT SERVICE STATION
Attendance: UNATNDD
Wind indicator: no
Segmented circle: no

Airport Communications

WX AWOS-AV at N81 (2.1 nm E): 122.7
WX ASOS at ACY (16 nm SE): PHONE 609-272-9311
WX ASOS at VAY (17 nm N): 119.325 (609-267-1176)

Nearby radio navigation aids

VOR radial/distance  VOR name  Freq  Var
VCNr056/10.5CEDAR LAKE VOR/DME115.2010W
ACYr329/16.0ATLANTIC CITY VORTAC108.6010W
CYNr251/19.6COYLE VORTAC113.4010W
GXUr216/23.1MC GUIRE VORTAC110.6012W
OODr097/23.2WOODSTOWN VORTAC112.8010W
SIEr009/33.8SEA ISLE VORTAC114.8009W
RBVr213/35.6ROBBINSVILLE VORTAC113.8010W
ARDr182/36.0YARDLEY VOR/DME108.2010W
DQOr102/37.2DUPONT VORTAC114.0010W

 
NDB name  Hdg/Dist  Freq  Var  ID
RAINBOW058/21.136311WRNB .-. -. -...
LAKEHURST234/31.639611WNEL -. . .-..
AMBLER154/35.827512WING .. -. --.

Airport Services

Airframe service: NONE
Powerplant service: NONE

Runway Information

Runway NE/SW

Dimensions: 1700 x 150 ft. / 518 x 46 m
Surface: turf
RUNWAY NE  RUNWAY SW
Traffic pattern: leftleft
Obstructions: bldgs wiresnone

Airport Ownership and Management from official FAA records

Ownership: Privately-owned
Owner: 1303 ASSOCIATES, LLC
2760 GLASSBORO-CROSS KEYS RD
GLASSBORO, NJ 08028
Phone 856-863-6904
Manager: CHRIS FAZZIO
2760 GLASSBORO-CROSS KEYS RD
GLASSBORO, NJ 08028
Phone 609-561-2712
609-820-7534

Additional Remarks

PRIVATE FACILITY LICENSED BY STATE FOR 1 PLANE 1 PILOT
FOR CD CTC WASHINGTON ARTCC AT 703-771-3587.

Instrument Procedures

There are no published instrument procedures at NJ69.

Some nearby airports with instrument procedures:

N81 - Hammonton Municipal Airport (2 nm E)
19N - Camden County Airport (10 nm NW)
17N - Cross Keys Airport (11 nm W)
29N - Kroelinger Airport (14 nm SW)
KACY - Atlantic City International Airport (16 nm SE)
N14 - Flying W Airport (17 nm N)
KVAY - South Jersey Regional Airport (17 nm N)
 
Loc | Ops | Rwys | IFR | FBO | Links
Com | Nav | Svcs | Stats | Notes
Area around NJ69 (Ideal Air Strip)
 
Road maps at: MapQuest Bing Google
 
Aerial photo
No photo
 
Sectional chart

 
Airport distance calculator
Flying to Ideal Air Strip? Find the distance to fly.

From to NJ69

Sunrise and sunset
Times for 24-Jan-2020
 Local
(UTC-5)
 Zulu
(UTC)
Morning civil twilight06:4611:46
Sunrise07:1512:15
Sunset17:0822:08
Evening civil twilight17:3722:37

Current date and time
Zulu (UTC)  24-Jan-2020 15:26:46
Local (UTC-5)  24-Jan-2020 10:26:46
 
METAR
KACY 
15nm SE 
241454Z 08007KT 10SM FEW050 09/04 A3037
KVAY 
17nm N 
ASOS 119.325 609-267-1176
241454Z AUTO 08003KT 10SM CLR 05/M02 A3038 RMK AO2 SLP287 T00501022 51009
KMIV 
22nm SW 
241454Z AUTO 09007KT 10SM BKN046 07/02 A3035 RMK AO2 SLP276 T00720022 50006
KPHL 
23nm NW 
241454Z 07006KT 10SM FEW050 06/M06 A3037 RMK AO2 SLP284 T00561056 51010 $
KWRI 
24nm NE 
241456Z AUTO 06006KT 10SM CLR 08/M02 A3036 RMK AO2 SLP282 T00791019 52008 $
KPNE 
27nm N 
241523Z 09004KT 10SM FEW015 08/M05 A3039 RMK AO2 T00831050
KMJX 
29nm NE 
AWOS-3 119.875 732-244-4450
241456Z AUTO 04006KT 10SM CLR 06/M01 A3039 RMK AO2 SLP296 T00611011 53009
KNEL 
30nm NE 
241500Z 06006KT 10SM CLR 07/M02 A3037 RMK AO2 SLP284 T00721017 51007 $
TAF
KACY 
15nm SE 
241123Z 2412/2512 VRB03KT P6SM BKN150 FM241400 08008KT P6SM BKN150 FM250000 09008KT P6SM BKN060 FM250400 10010KT P6SM BKN020 FM250800 10012G22KT 5SM -RA OVC008
NOTAMs
Click for the latest NOTAMs
NOTAMs are issued by the DoD/FAA and will open in a separate window not controlled by AirNav.

 

 
 

Would you like to see your business listed on this page?

 If your business provides an interesting product or service to pilots, flight crews, aircraft, or users of the Ideal Air Strip, you should consider listing it here.  To start the listing process, click on the button below
 
Add a business
 

Other Pages about Ideal Air Strip

Update a link
 
Copyright © AirNav, LLC. All rights reserved. Privacy Policy  Contact